N4406F KJSV-KGOK

Flight info

Callsign N4406F
Flight time 1h 4m
Altitude 6500
Route OKM ZAMSA
Aircraft PA34/L-SDFGRY/S

Departure

Time 2026-04-25 19:16
Airport Sallisaw Municipal Airport (KJSV)

Arrival

Time 2026-04-25 20:21
Airport Guthrie-Edmond Regional Airport (KGOK)
Time Latitude Longitude Altitude Speed Heading
2026-04-25 19:00 35.43838 -94.80396 521 ft 0 kts 182°
2026-04-25 19:09 35.43837 -94.80379 521 ft 5 kts 27°
2026-04-25 19:09 35.43858 -94.80374 521 ft 4 kts
2026-04-25 19:09 35.43947 -94.80372 523 ft 6 kts 359°
2026-04-25 19:10 35.43992 -94.80373 524 ft 6 kts
2026-04-25 19:10 35.44045 -94.80371 525 ft 12 kts 359°
2026-04-25 19:10 35.44168 -94.80372 527 ft 18 kts 360°
2026-04-25 19:10 35.44280 -94.80373 529 ft 14 kts 360°
2026-04-25 19:11 35.44328 -94.80373 530 ft 5 kts 359°
2026-04-25 19:11 35.44363 -94.80365 530 ft 1 kts 53°
2026-04-25 19:13 35.44370 -94.80344 530 ft 6 kts 82°
2026-04-25 19:13 35.44367 -94.80288 530 ft 4 kts 167°
2026-04-25 19:14 35.44363 -94.80287 530 ft 0 kts 177°
2026-04-25 19:15 35.44203 -94.80289 527 ft 62 kts 179°
2026-04-25 19:15 35.43601 -94.80313 584 ft 100 kts 179°
2026-04-25 19:15 35.42880 -94.80417 777 ft 106 kts 183°
2026-04-25 19:16 35.42159 -94.80577 933 ft 107 kts 186°
2026-04-25 19:16 35.41409 -94.80756 992 ft 112 kts 186°
2026-04-25 19:16 35.40696 -94.81190 1069 ft 121 kts 223°
2026-04-25 19:16 35.40398 -94.82168 1128 ft 130 kts 266°
2026-04-25 19:17 35.40714 -94.83178 1271 ft 129 kts 308°
2026-04-25 19:17 35.41307 -94.83995 1440 ft 129 kts 313°
2026-04-25 19:17 35.41921 -94.84802 1614 ft 130 kts 312°
2026-04-25 19:17 35.42546 -94.85622 1790 ft 131 kts 311°
2026-04-25 19:18 35.43145 -94.86461 1967 ft 129 kts 302°
2026-04-25 19:18 35.43656 -94.87374 2137 ft 130 kts 300°
2026-04-25 19:18 35.44131 -94.88314 2320 ft 129 kts 298°
2026-04-25 19:18 35.44566 -94.89269 2483 ft 127 kts 294°
2026-04-25 19:19 35.44964 -94.90225 2643 ft 126 kts 293°
2026-04-25 19:19 35.45340 -94.91206 2810 ft 126 kts 291°
2026-04-25 19:19 35.45690 -94.92174 2981 ft 125 kts 289°
2026-04-25 19:19 35.45918 -94.92840 3104 ft 124 kts 289°
2026-04-25 19:20 35.46342 -94.94137 3329 ft 123 kts 287°
2026-04-25 19:20 35.46651 -94.95135 3502 ft 123 kts 286°
2026-04-25 19:20 35.46945 -94.96116 3681 ft 122 kts 285°
2026-04-25 19:20 35.47231 -94.97099 3861 ft 122 kts 284°
2026-04-25 19:21 35.47507 -94.98070 4044 ft 121 kts 284°
2026-04-25 19:21 35.48044 -95.00017 4368 ft 120 kts 283°
2026-04-25 19:21 35.48303 -95.00981 4550 ft 120 kts 282°
2026-04-25 19:22 35.48563 -95.01958 4743 ft 120 kts 282°
2026-04-25 19:22 35.48821 -95.02940 4927 ft 120 kts 282°
2026-04-25 19:22 35.49327 -95.04891 5295 ft 119 kts 281°
2026-04-25 19:23 35.49577 -95.05865 5491 ft 119 kts 281°
2026-04-25 19:23 35.50069 -95.07799 5842 ft 120 kts 281°
2026-04-25 19:23 35.50318 -95.08786 5995 ft 122 kts 280°
2026-04-25 19:24 35.50569 -95.09782 6154 ft 122 kts 280°
2026-04-25 19:24 35.50819 -95.10779 6314 ft 122 kts 280°
2026-04-25 19:24 35.51333 -95.12841 6476 ft 132 kts 280°
2026-04-25 19:25 35.51886 -95.15067 6472 ft 140 kts 281°
2026-04-25 19:25 35.52174 -95.16223 6470 ft 141 kts 281°
2026-04-25 19:25 35.52460 -95.17376 6470 ft 141 kts 281°
2026-04-25 19:26 35.52746 -95.18526 6468 ft 142 kts 281°
2026-04-25 19:26 35.53035 -95.19694 6468 ft 142 kts 281°
2026-04-25 19:26 35.53321 -95.20847 6474 ft 142 kts 281°
2026-04-25 19:26 35.53613 -95.22028 6477 ft 142 kts 281°
2026-04-25 19:27 35.53901 -95.23193 6480 ft 143 kts 281°
2026-04-25 19:27 35.54094 -95.23976 6486 ft 143 kts 281°
2026-04-25 19:27 35.54487 -95.25545 6474 ft 143 kts 281°
2026-04-25 19:27 35.54778 -95.26713 6476 ft 143 kts 281°
2026-04-25 19:28 35.55071 -95.27895 6474 ft 143 kts 281°
2026-04-25 19:28 35.55365 -95.29075 6468 ft 142 kts 281°
2026-04-25 19:28 35.55654 -95.30246 6469 ft 142 kts 281°
2026-04-25 19:28 35.55942 -95.31414 6479 ft 143 kts 281°
2026-04-25 19:29 35.56232 -95.32590 6471 ft 143 kts 281°
2026-04-25 19:29 35.56524 -95.33772 6474 ft 143 kts 281°
2026-04-25 19:29 35.56814 -95.34950 6466 ft 143 kts 281°
2026-04-25 19:29 35.57101 -95.36118 6465 ft 142 kts 281°
2026-04-25 19:30 35.57386 -95.37277 6481 ft 142 kts 281°
2026-04-25 19:30 35.57867 -95.39235 6475 ft 144 kts 281°
2026-04-25 19:30 35.58256 -95.40823 6477 ft 144 kts 281°
2026-04-25 19:31 35.59226 -95.44779 6473 ft 145 kts 280°
2026-04-25 19:32 35.59712 -95.46766 6477 ft 144 kts 281°
2026-04-25 19:32 35.60001 -95.47949 6475 ft 144 kts 281°
2026-04-25 19:32 35.60294 -95.49147 6478 ft 144 kts 280°
2026-04-25 19:32 35.60489 -95.49944 6475 ft 145 kts 280°
2026-04-25 19:33 35.60875 -95.51528 6475 ft 144 kts 281°
2026-04-25 19:33 35.61163 -95.52705 6473 ft 144 kts 280°
2026-04-25 19:33 35.61450 -95.53884 6468 ft 143 kts 279°
2026-04-25 19:33 35.61734 -95.55050 6467 ft 143 kts 281°
2026-04-25 19:34 35.62021 -95.56231 6471 ft 143 kts 280°
2026-04-25 19:34 35.62304 -95.57392 6467 ft 143 kts 281°
2026-04-25 19:34 35.62592 -95.58575 6465 ft 143 kts 280°
2026-04-25 19:34 35.62878 -95.59750 6465 ft 143 kts 281°
2026-04-25 19:35 35.63162 -95.60916 6460 ft 143 kts 280°
2026-04-25 19:35 35.63450 -95.62103 6456 ft 143 kts 281°
2026-04-25 19:35 35.63565 -95.62575 6454 ft 143 kts 280°
2026-04-25 19:35 35.63691 -95.63094 6458 ft 143 kts 281°
2026-04-25 19:36 35.63977 -95.64274 6459 ft 143 kts 281°
2026-04-25 19:36 35.64263 -95.65454 6456 ft 143 kts 279°
2026-04-25 19:36 35.64538 -95.66633 6454 ft 143 kts 279°
2026-04-25 19:36 35.64814 -95.67807 6454 ft 143 kts 278°
2026-04-25 19:37 35.65091 -95.68977 6458 ft 143 kts 279°
2026-04-25 19:37 35.65371 -95.70156 6455 ft 143 kts 279°
2026-04-25 19:37 35.65649 -95.71324 6454 ft 143 kts 279°
2026-04-25 19:37 35.65906 -95.72509 6451 ft 141 kts 275°
2026-04-25 19:38 35.66113 -95.73702 6451 ft 141 kts 275°
2026-04-25 19:38 35.66338 -95.74874 6456 ft 141 kts 276°
2026-04-25 19:38 35.66579 -95.76038 6456 ft 142 kts 277°
2026-04-25 19:38 35.66838 -95.77223 6460 ft 142 kts 278°
2026-04-25 19:39 35.67101 -95.78389 6461 ft 143 kts 278°
2026-04-25 19:39 35.67372 -95.79572 6460 ft 145 kts 279°
2026-04-25 19:39 35.67653 -95.80777 6462 ft 146 kts 279°
2026-04-25 19:39 35.67936 -95.81979 6466 ft 147 kts 280°
2026-04-25 19:40 35.68221 -95.83177 6472 ft 145 kts 279°
2026-04-25 19:40 35.68507 -95.84380 6468 ft 146 kts 279°
2026-04-25 19:40 35.68791 -95.85567 6467 ft 145 kts 279°
2026-04-25 19:40 35.69074 -95.86757 6466 ft 145 kts 279°
2026-04-25 19:41 35.69313 -95.87957 6465 ft 143 kts 274°
2026-04-25 19:41 35.69477 -95.89161 6463 ft 142 kts 270°
2026-04-25 19:41 35.69585 -95.90371 6462 ft 142 kts 269°
2026-04-25 19:41 35.69613 -95.90766 6465 ft 141 kts 267°
2026-04-25 19:42 35.69782 -95.92788 6463 ft 143 kts 271°
2026-04-25 19:42 35.69919 -95.94007 6463 ft 142 kts 269°
2026-04-25 19:42 35.70011 -95.95215 6465 ft 141 kts 267°
2026-04-25 19:42 35.70074 -95.96429 6466 ft 141 kts 265°
2026-04-25 19:43 35.70118 -95.97643 6469 ft 141 kts 265°
2026-04-25 19:43 35.70147 -95.98843 6471 ft 141 kts 264°
2026-04-25 19:43 35.70167 -96.00055 6474 ft 141 kts 263°
2026-04-25 19:43 35.70182 -96.01267 6478 ft 141 kts 263°
2026-04-25 19:44 35.70190 -96.02483 6474 ft 141 kts 263°
2026-04-25 19:44 35.70198 -96.03693 6470 ft 141 kts 263°
2026-04-25 19:44 35.70203 -96.04897 6470 ft 141 kts 264°
2026-04-25 19:44 35.70204 -96.06093 6465 ft 141 kts 263°
2026-04-25 19:45 35.70207 -96.07297 6465 ft 140 kts 263°
2026-04-25 19:45 35.70208 -96.08504 6469 ft 140 kts 263°
2026-04-25 19:45 35.70209 -96.09701 6475 ft 140 kts 263°
2026-04-25 19:45 35.70209 -96.10902 6465 ft 141 kts 261°
2026-04-25 19:46 35.70202 -96.12133 6470 ft 151 kts 264°
2026-04-25 19:46 35.70202 -96.13465 6473 ft 158 kts 264°
2026-04-25 19:46 35.70203 -96.14825 6469 ft 162 kts 264°
2026-04-25 19:46 35.70203 -96.16220 6463 ft 164 kts 264°
2026-04-25 19:47 35.70204 -96.17635 6458 ft 165 kts 264°
2026-04-25 19:47 35.70204 -96.19048 6449 ft 165 kts 263°
2026-04-25 19:47 35.70204 -96.20460 6450 ft 165 kts 263°
2026-04-25 19:47 35.70202 -96.21878 6448 ft 166 kts 264°
2026-04-25 19:48 35.70201 -96.23313 6449 ft 166 kts 264°
2026-04-25 19:48 35.70200 -96.24735 6449 ft 166 kts 264°
2026-04-25 19:48 35.70197 -96.26157 6449 ft 166 kts 264°
2026-04-25 19:48 35.70195 -96.27564 6449 ft 166 kts 264°
2026-04-25 19:49 35.70193 -96.28986 6447 ft 165 kts 264°
2026-04-25 19:49 35.70192 -96.29468 6445 ft 165 kts 264°
2026-04-25 19:49 35.70188 -96.31823 6445 ft 165 kts 264°
2026-04-25 19:49 35.70185 -96.33242 6448 ft 165 kts 264°
2026-04-25 19:50 35.70179 -96.36092 6443 ft 166 kts 264°
2026-04-25 19:50 35.70176 -96.37505 6441 ft 166 kts 263°
2026-04-25 19:50 35.70172 -96.38934 6436 ft 166 kts 264°
2026-04-25 19:51 35.70169 -96.40347 6436 ft 166 kts 264°
2026-04-25 19:51 35.70167 -96.40846 6436 ft 166 kts 264°
2026-04-25 19:51 35.70163 -96.42263 6438 ft 166 kts 263°
2026-04-25 19:51 35.70159 -96.43690 6438 ft 166 kts 264°
2026-04-25 19:52 35.70155 -96.45100 6437 ft 165 kts 263°
2026-04-25 19:52 35.70150 -96.46515 6438 ft 165 kts 264°
2026-04-25 19:52 35.70146 -96.47944 6438 ft 165 kts 264°
2026-04-25 19:52 35.70141 -96.49354 6437 ft 164 kts 264°
2026-04-25 19:53 35.70136 -96.50774 6435 ft 164 kts 264°
2026-04-25 19:53 35.70131 -96.52174 6437 ft 164 kts 264°
2026-04-25 19:53 35.70126 -96.53578 6438 ft 165 kts 264°
2026-04-25 19:53 35.70121 -96.54975 6436 ft 165 kts 264°
2026-04-25 19:54 35.70114 -96.56396 6436 ft 165 kts 264°
2026-04-25 19:54 35.70109 -96.57838 6439 ft 165 kts 264°
2026-04-25 19:54 35.70103 -96.59231 6440 ft 165 kts 264°
2026-04-25 19:54 35.70100 -96.60176 6415 ft 165 kts 263°
2026-04-25 19:55 35.70090 -96.62054 6179 ft 166 kts 264°
2026-04-25 19:55 35.70085 -96.63486 6002 ft 165 kts 263°
2026-04-25 19:55 35.70078 -96.64885 5824 ft 165 kts 264°
2026-04-25 19:55 35.70071 -96.66314 5647 ft 165 kts 263°
2026-04-25 19:56 35.70064 -96.67729 5492 ft 165 kts 263°
2026-04-25 19:56 35.70058 -96.69125 5312 ft 164 kts 263°
2026-04-25 19:56 35.70050 -96.70541 5116 ft 164 kts 263°
2026-04-25 19:56 35.70048 -96.70869 5073 ft 164 kts 264°
2026-04-25 19:57 35.70041 -96.72269 4899 ft 163 kts 263°
2026-04-25 19:57 35.70032 -96.73668 4767 ft 165 kts 263°
2026-04-25 19:57 35.70025 -96.75082 4627 ft 168 kts 263°
2026-04-25 19:57 35.70016 -96.76539 4510 ft 169 kts 264°
2026-04-25 19:58 35.70010 -96.77986 4459 ft 168 kts 264°
2026-04-25 19:58 35.70001 -96.79409 4452 ft 167 kts 264°
2026-04-25 19:58 35.69993 -96.80843 4461 ft 165 kts 264°
2026-04-25 19:58 35.69983 -96.82265 4451 ft 165 kts 263°
2026-04-25 19:59 35.69974 -96.83687 4463 ft 165 kts 264°
2026-04-25 19:59 35.69966 -96.85120 4453 ft 165 kts 264°
2026-04-25 19:59 35.69957 -96.86547 4452 ft 165 kts 264°
2026-04-25 19:59 35.69949 -96.87956 4450 ft 165 kts 263°
2026-04-25 20:00 35.69938 -96.89354 4453 ft 164 kts 264°
2026-04-25 20:00 35.69997 -96.92186 4434 ft 166 kts 273°
2026-04-25 20:00 35.70291 -96.93574 4451 ft 169 kts 283°
2026-04-25 20:01 35.71341 -96.96226 4449 ft 173 kts 294°
2026-04-25 20:01 35.71986 -96.97514 4446 ft 174 kts 296°
2026-04-25 20:01 35.72660 -96.98767 4443 ft 174 kts 298°
2026-04-25 20:02 35.73360 -97.00008 4442 ft 174 kts 299°
2026-04-25 20:02 35.74072 -97.01234 4441 ft 174 kts 301°
2026-04-25 20:02 35.74793 -97.02457 4442 ft 174 kts 301°
2026-04-25 20:02 35.75526 -97.03685 4443 ft 175 kts 302°
2026-04-25 20:03 35.76332 -97.04848 4445 ft 176 kts 307°
2026-04-25 20:03 35.77158 -97.05981 4446 ft 176 kts 307°
2026-04-25 20:03 35.77987 -97.07113 4444 ft 177 kts 307°
2026-04-25 20:03 35.78821 -97.08250 4439 ft 176 kts 307°
2026-04-25 20:04 35.79624 -97.09408 4434 ft 175 kts 304°
2026-04-25 20:04 35.80391 -97.10604 4417 ft 174 kts 303°
2026-04-25 20:04 35.81127 -97.11792 4292 ft 169 kts 303°
2026-04-25 20:04 35.81839 -97.12954 4170 ft 168 kts 303°
2026-04-25 20:05 35.82549 -97.14121 4047 ft 167 kts 302°
2026-04-25 20:05 35.83247 -97.15273 3930 ft 166 kts 302°
2026-04-25 20:05 35.83949 -97.16432 3807 ft 167 kts 302°
2026-04-25 20:05 35.84644 -97.17584 3682 ft 167 kts 302°
2026-04-25 20:06 35.85349 -97.18749 3558 ft 167 kts 303°
2026-04-25 20:06 35.86051 -97.19910 3439 ft 167 kts 304°
2026-04-25 20:06 35.86757 -97.21075 3327 ft 167 kts 303°
2026-04-25 20:06 35.87464 -97.22246 3256 ft 172 kts 303°
2026-04-25 20:07 35.88205 -97.23473 3193 ft 177 kts 304°
2026-04-25 20:07 35.88452 -97.23884 3177 ft 178 kts 304°
2026-04-25 20:07 35.88948 -97.24703 3140 ft 179 kts 304°
2026-04-25 20:07 35.90203 -97.26782 3137 ft 176 kts 304°
2026-04-25 20:08 35.90938 -97.28001 3132 ft 175 kts 304°
2026-04-25 20:08 35.91919 -97.29627 3128 ft 174 kts 304°
2026-04-25 20:08 35.92639 -97.30823 3129 ft 168 kts 304°
2026-04-25 20:08 35.93318 -97.31949 3125 ft 157 kts 304°
2026-04-25 20:09 35.93969 -97.33030 3128 ft 147 kts 304°
2026-04-25 20:09 35.94561 -97.34060 3125 ft 137 kts 301°
2026-04-25 20:09 35.95075 -97.35036 3119 ft 131 kts 298°
2026-04-25 20:09 35.95542 -97.35982 3120 ft 127 kts 297°
2026-04-25 20:10 35.95982 -97.36935 3128 ft 124 kts 296°
2026-04-25 20:10 35.96274 -97.37540 3133 ft 123 kts 297°
2026-04-25 20:10 35.96736 -97.38447 3136 ft 123 kts 300°
2026-04-25 20:10 35.97212 -97.39339 3134 ft 122 kts 301°
2026-04-25 20:11 35.97857 -97.40500 3131 ft 120 kts 302°
2026-04-25 20:11 35.98337 -97.41344 3131 ft 119 kts 303°
2026-04-25 20:11 35.98824 -97.42186 3130 ft 118 kts 303°
2026-04-25 20:11 35.99306 -97.43010 3124 ft 118 kts 304°
2026-04-25 20:12 35.99797 -97.43846 3124 ft 118 kts 304°
2026-04-25 20:12 36.00283 -97.44668 3119 ft 118 kts 305°
2026-04-25 20:12 36.00776 -97.45496 3118 ft 118 kts 304°
2026-04-25 20:12 36.00943 -97.45779 3118 ft 118 kts 304°
2026-04-25 20:13 36.01750 -97.47176 3050 ft 121 kts 295°
2026-04-25 20:13 36.02018 -97.48138 3020 ft 111 kts 277°
2026-04-25 20:13 36.02051 -97.49061 2976 ft 105 kts 259°
2026-04-25 20:13 36.02058 -97.49962 2917 ft 106 kts 283°
2026-04-25 20:14 36.02006 -97.50845 2836 ft 100 kts 239°
2026-04-25 20:14 36.01511 -97.51395 2759 ft 94 kts 194°
2026-04-25 20:14 36.00869 -97.51371 2722 ft 90 kts 163°
2026-04-25 20:14 36.00246 -97.51136 2731 ft 96 kts 161°
2026-04-25 20:15 35.99583 -97.50873 2729 ft 101 kts 160°
2026-04-25 20:15 35.98900 -97.50603 2735 ft 104 kts 161°
2026-04-25 20:15 35.98208 -97.50317 2761 ft 101 kts 158°
2026-04-25 20:15 35.97570 -97.49982 2692 ft 97 kts 154°
2026-04-25 20:16 35.96968 -97.49616 2596 ft 94 kts 153°
2026-04-25 20:16 35.96387 -97.49253 2468 ft 92 kts 151°
2026-04-25 20:16 35.95801 -97.48903 2381 ft 92 kts 156°
2026-04-25 20:16 35.95244 -97.48511 2300 ft 92 kts 142°
2026-04-25 20:17 35.94732 -97.48011 2198 ft 93 kts 135°
2026-04-25 20:17 35.94245 -97.47467 2103 ft 92 kts 137°
2026-04-25 20:17 35.93761 -97.46931 2016 ft 93 kts 139°
2026-04-25 20:17 35.93242 -97.46448 1905 ft 92 kts 141°
2026-04-25 20:18 35.92747 -97.45957 1869 ft 85 kts 139°
2026-04-25 20:18 35.92291 -97.45493 1853 ft 83 kts 136°
2026-04-25 20:18 35.91836 -97.44990 1784 ft 88 kts 135°
2026-04-25 20:18 35.91391 -97.44468 1750 ft 87 kts 136°
2026-04-25 20:19 35.90935 -97.43952 1723 ft 86 kts 139°
2026-04-25 20:19 35.90467 -97.43479 1656 ft 87 kts 145°
2026-04-25 20:19 35.89905 -97.43169 1551 ft 89 kts 161°
2026-04-25 20:19 35.89294 -97.42984 1448 ft 88 kts 165°
2026-04-25 20:20 35.88716 -97.42818 1403 ft 83 kts 163°
2026-04-25 20:20 35.88146 -97.42617 1324 ft 84 kts 160°
2026-04-25 20:20 35.87579 -97.42424 1307 ft 83 kts 162°
2026-04-25 20:20 35.87022 -97.42235 1241 ft 80 kts 162°
2026-04-25 20:21 35.86466 -97.42055 1169 ft 82 kts 163°
2026-04-25 20:21 35.85914 -97.41870 1088 ft 79 kts 161°
2026-04-25 20:21 35.85466 -97.41718 1060 ft 44 kts 162°
2026-04-25 20:21 35.85381 -97.41688 1063 ft 1 kts 197°
2026-04-25 20:22 35.85381 -97.41725 1062 ft 4 kts 264°
2026-04-25 20:22 35.85380 -97.41738 1062 ft 4 kts 261°
2026-04-25 20:22 35.85365 -97.41772 1061 ft 0 kts 154°
2026-04-25 20:22 35.85327 -97.41750 1063 ft 10 kts 161°
2026-04-25 20:23 35.85282 -97.41735 1065 ft 2 kts 165°
2026-04-25 20:23 35.85231 -97.41718 1066 ft 14 kts 162°
2026-04-25 20:23 35.85150 -97.41692 1068 ft 8 kts 164°
2026-04-25 20:23 35.85106 -97.41676 1069 ft 4 kts 164°
2026-04-25 20:24 35.85084 -97.41675 1069 ft 3 kts 220°
2026-04-25 20:24 35.85091 -97.41736 1067 ft 8 kts 298°
2026-04-25 20:24 35.85122 -97.41802 1066 ft 6 kts 291°
2026-04-25 20:24 35.85097 -97.41836 1065 ft 5 kts 211°
2026-04-25 20:25 35.85084 -97.41861 1065 ft 0 kts 298°